sat.trackr.live / text

‹ back to catalog

STARLINK-2628

NORAD 48359 · 2021-038G

PAYLOAD ACTIVE UNKNOWN

§ Identity

Operator
Country
US
Launch date
2021-05-04
Launch site
AFETR
Launch vehicle
Mass (kg)
RCS (m²)

Purposes: comms

External: N2YO · Heavens-Above · Gunter

§ Orbital elements

Epoch: 2026-09-19T11:17:38.515488Z

Period
93.92 min
Inclination
53.1591°
Eccentricity
0.0002943
Mean motion
15.33258710 rev/d
Perigee alt
464.1 km
Apogee alt
468.1 km
Semi-major
6,844.2 km
B*
1.1849e-3
RAAN
176.5175°
Arg perigee
92.4930°
Mean anomaly
267.6409°
Rev number
29,676

§ Raw data

STARLINK-26281 48359U 21038G   26262.47058467  .00038442  00000+0  11849-2 0  99972 48359  53.1591 176.5175 0002943  92.4930 267.6409 15.33258710296761

JSON: /api/v1/satellites/48359 · /tle

For live sub-satellite position, see the globe view (requires WebGL).

§ Visibility from observer

Set your observer location to see the next 7 days of passes ≥ 10°. The values pass through the URL so the page stays shareable.

No JS? Fill the form by hand. The geolocation button needs JavaScript.